| time (UTC) | temp F | wind direction | speed knots | gust knots | rain 1hr in | rain 24hr in | rain mn in | humidity % | barometer mb |
| 20260509101514 | 50 | 165 | 7.8 | 15.6 | 0.00 | 0.00 | 0.00 | 49 | 999.4 |
| 20260509101510 | 50 | 167 | 8.7 | 17.4 | 0.00 | 0.00 | 0.00 | 48 | 998.2 |
| 20260509100535 | 50 | 160 | 7.0 | 13.0 | 0.00 | 0.00 | 0.00 | 49 | 999.6 |
| 20260509100024 | 50 | 188 | 7.8 | 14.8 | 0.00 | 0.00 | 0.00 | 49 | 999.7 |
| 20260509100006 | 50 | 178 | 8.7 | 16.5 | 0.00 | 0.00 | 0.00 | 48 | 998.4 |
| 20260509095535 | 50 | 154 | 7.0 | 12.2 | 0.00 | 0.00 | 0.00 | 49 | 999.7 |
| 20260509095024 | 50 | 180 | 7.0 | 12.2 | 0.00 | 0.00 | 0.00 | 49 | 999.6 |
| 20260509094514 | 50 | 167 | 9.6 | 15.6 | 0.00 | 0.00 | 0.00 | 49 | 998.5 |
| 20260509094035 | 49 | 170 | 8.7 | 13.9 | 0.00 | 0.00 | 0.00 | 50 | 1000.0 |
| 20260509093513 | 49 | 140 | 7.8 | 15.6 | 0.00 | 0.00 | 0.00 | 49 | 1000.0 |
| 20260509093016 | 49 | 192 | 8.7 | 16.5 | 0.00 | 0.00 | 0.00 | 49 | 998.8 |
| 20260509093013 | 49 | 176 | 7.8 | 15.6 | 0.00 | 0.00 | 0.00 | 50 | 1000.1 |
| 20260509092013 | 49 | 171 | 7.0 | 13.0 | 0.00 | 0.00 | 0.00 | 49 | 1000.1 |
| 20260509091503 | 50 | 157 | 8.7 | 15.6 | 0.00 | 0.00 | 0.00 | 48 | 999.0 |
| 20260509091035 | 50 | 176 | 6.1 | 11.3 | 0.00 | 0.00 | 0.00 | 49 | 1000.3 |
| 20260509090513 | 50 | 185 | 6.1 | 12.2 | 0.00 | 0.00 | 0.00 | 48 | 1000.3 |
| 20260509090024 | 50 | 149 | 7.8 | 12.2 | 0.00 | 0.00 | 0.00 | 49 | 1000.3 |
| 20260509090005 | 50 | 161 | 7.8 | 13.0 | 0.00 | 0.00 | 0.00 | 48 | 999.6 |
| 20260509085513 | 50 | 137 | 7.0 | 11.3 | 0.00 | 0.00 | 0.00 | 49 | 1000.3 |
| 20260509084513 | 50 | 157 | 6.1 | 11.3 | 0.00 | 0.00 | 0.00 | 49 | 1000.5 |
| 20260509084506 | 50 | 141 | 6.1 | 13.9 | 0.00 | 0.00 | 0.00 | 48 | 999.7 |
| 20260509084024 | 50 | 155 | 6.1 | 9.6 | 0.00 | 0.00 | 0.00 | 49 | 1000.6 |
| 20260509083547 | 50 | 178 | 6.1 | 13.9 | 0.00 | 0.00 | 0.00 | 49 | 1000.6 |
| 20260509083012 | 50 | 157 | 7.8 | 13.9 | 0.00 | 0.00 | 0.00 | 49 | 999.5 |
| 20260509082513 | 50 | 167 | 7.0 | 9.6 | 0.00 | 0.00 | 0.00 | 50 | 1000.9 |
| 20260509082013 | 50 | 178 | 5.2 | 8.7 | 0.00 | 0.00 | 0.00 | 50 | 1000.9 |
| 20260509081524 | 50 | 161 | 6.1 | 9.6 | 0.00 | 0.00 | 0.00 | 50 | 1001.0 |
| 20260509081518 | 50 | 177 | 6.1 | 11.3 | 0.00 | 0.00 | 0.00 | 50 | 999.7 |
| 20260509081013 | 50 | 137 | 6.1 | 8.7 | 0.00 | 0.00 | 0.00 | 50 | 1000.9 |
| 20260509080513 | 50 | 171 | 6.1 | 9.6 | 0.00 | 0.00 | 0.00 | 50 | 1001.1 |
| 20260509080013 | 50 | 144 | 5.2 | 10.4 | 0.00 | 0.00 | 0.00 | 51 | 1001.2 |
| 20260509080004 | 50 | 164 | 5.2 | 12.2 | 0.00 | 0.00 | 0.00 | 50 | 1000.0 |
| 20260509075513 | 50 | 156 | 6.1 | 9.6 | 0.00 | 0.00 | 0.00 | 50 | 1001.2 |
| 20260509075035 | 49 | 153 | 5.2 | 9.6 | 0.00 | 0.00 | 0.00 | 52 | 1001.4 |
| 20260509074513 | 49 | 153 | 7.0 | 9.6 | 0.00 | 0.00 | 0.00 | 53 | 1001.5 |
| 20260509074505 | 49 | 167 | 7.0 | 11.3 | 0.00 | 0.00 | 0.00 | 52 | 1000.3 |
| 20260509074013 | 49 | 157 | 5.2 | 8.7 | 0.00 | 0.00 | 0.00 | 54 | 1001.5 |
| 20260509073524 | 49 | 155 | 5.2 | 7.8 | 0.00 | 0.00 | 0.00 | 54 | 1001.6 |
| 20260509073013 | 49 | 160 | 5.2 | 8.7 | 0.00 | 0.00 | 0.00 | 55 | 1001.7 |
| 20260509073010 | 49 | 144 | 5.2 | 10.4 | 0.00 | 0.00 | 0.00 | 54 | 1000.9 |
| 20260509071515 | 48 | 178 | 4.3 | 8.7 | 0.00 | 0.00 | 0.00 | 56 | 1001.2 |
| 20260509071513 | 48 | 173 | 4.3 | 8.7 | 0.00 | 0.00 | 0.00 | 56 | 1002.1 |
| 20260509071013 | 48 | 179 | 5.2 | 8.7 | 0.00 | 0.00 | 0.00 | 56 | 1002.2 |
| 20260509070513 | 48 | 209 | 5.2 | 8.7 | 0.00 | 0.00 | 0.00 | 57 | 1002.3 |
| 20260509070022 | 47 | 167 | 3.5 | 7.8 | 0.00 | 0.00 | 0.00 | 59 | 1000.8 |
| 20260509070013 | 47 | 152 | 3.5 | 7.0 | 0.00 | 0.00 | 0.00 | 59 | 1002.2 |
| 20260509065535 | 47 | 164 | 4.3 | 7.0 | 0.00 | 0.00 | 0.00 | 61 | 1002.3 |
| 20260509065013 | 46 | 128 | 4.3 | 6.1 | 0.00 | 0.00 | 0.00 | 64 | 1002.3 |
| 20260509064513 | 45 | 123 | 4.3 | 6.1 | 0.00 | 0.00 | 0.00 | 67 | 1002.4 |
| 20260509064504 | 45 | 123 | 3.5 | 6.1 | 0.00 | 0.00 | 0.00 | 67 | 1001.1 |
| 20260509064035 | 46 | 111 | 3.5 | 4.3 | 0.00 | 0.00 | 0.00 | 68 | 1002.5 |
| 20260509063524 | 46 | 111 | 3.5 | 6.1 | 0.00 | 0.00 | 0.00 | 67 | 1002.6 |
| 20260509063013 | 46 | 122 | 4.3 | 6.1 | 0.00 | 0.00 | 0.00 | 65 | 1002.8 |
| 20260509063007 | 46 | 121 | 3.5 | 7.0 | 0.00 | 0.00 | 0.00 | 65 | 1001.6 |
| 20260509062514 | 46 | 101 | 3.5 | 7.0 | 0.00 | 0.00 | 0.00 | 65 | 1002.9 |
| 20260509062013 | 46 | 119 | 5.2 | 7.0 | 0.00 | 0.00 | 0.00 | 65 | 1003.1 |
| 20260509061515 | 46 | 126 | 2.6 | 5.2 | 0.00 | 0.00 | 0.00 | 65 | 1002.3 |
| 20260509061513 | 46 | 126 | 2.6 | 4.3 | 0.00 | 0.00 | 0.00 | 65 | 1003.2 |
| 20260509061013 | 46 | 126 | 2.6 | 3.5 | 0.00 | 0.00 | 0.00 | 66 | 1003.4 |
| 20260509060513 | 45 | 111 | 1.7 | 2.6 | 0.00 | 0.00 | 0.00 | 68 | 1003.3 |
| 20260509060026 | 45 | 111 | 0.9 | 1.7 | 0.00 | 0.00 | 0.00 | 72 | 1003.4 |
| 20260509060016 | 45 | 111 | 0.0 | 1.7 | 0.00 | 0.00 | 0.00 | 71 | 1002.8 |
| 20260509055524 | 45 | 111 | 0.9 | 1.7 | 0.00 | 0.00 | 0.00 | 69 | 1003.4 |
| 20260509055014 | 45 | 111 | 0.9 | 2.6 | 0.00 | 0.00 | 0.00 | 69 | 1003.6 |
| 20260509054524 | 45 | 111 | 1.7 | 2.6 | 0.00 | 0.00 | 0.00 | 68 | 1003.6 |
| 20260509054013 | 45 | 111 | 1.7 | 2.6 | 0.00 | 0.00 | 0.00 | 68 | 1003.7 |
| 20260509053535 | 45 | 111 | 0.9 | 3.5 | 0.00 | 0.00 | 0.00 | 69 | 1003.7 |
| 20260509053024 | 45 | 111 | 1.7 | 3.5 | 0.00 | 0.00 | 0.00 | 68 | 1002.7 |
| 20260509053013 | 45 | 111 | 1.7 | 3.5 | 0.00 | 0.00 | 0.00 | 68 | 1003.8 |
| 20260509052547 | 44 | 111 | 2.6 | 3.5 | 0.00 | 0.00 | 0.00 | 69 | 1003.9 |
| 20260509052013 | 45 | 53 | 1.7 | 4.3 | 0.00 | 0.00 | 0.00 | 70 | 1003.9 |
| 20260509051514 | 45 | 53 | 2.6 | 4.3 | 0.00 | 0.00 | 0.00 | 69 | 1004.0 |
| 20260509051512 | 45 | 53 | 2.6 | 4.3 | 0.00 | 0.00 | 0.00 | 68 | 1002.8 |
| 20260509050513 | 47 | 126 | 0.9 | 3.5 | 0.00 | 0.00 | 0.00 | 65 | 1004.0 |
| 20260509050025 | 47 | 126 | 1.7 | 3.5 | 0.00 | 0.00 | 0.00 | 58 | 1004.1 |
| 20260509050004 | 47 | 126 | 0.9 | 3.5 | 0.00 | 0.00 | 0.00 | 58 | 1002.9 |
| 20260509045513 | 47 | 133 | 2.6 | 3.5 | 0.00 | 0.00 | 0.00 | 58 | 1004.1 |
| 20260509045025 | 47 | 133 | 1.7 | 5.2 | 0.00 | 0.00 | 0.00 | 58 | 1004.1 |
| 20260509044513 | 48 | 141 | 2.6 | 7.0 | 0.00 | 0.00 | 0.00 | 58 | 1004.1 |
| 20260509044502 | 48 | 141 | 2.6 | 7.8 | 0.00 | 0.00 | 0.00 | 57 | 1003.2 |
| 20260509044024 | 48 | 146 | 4.3 | 7.0 | 0.00 | 0.00 | 0.00 | 58 | 1004.2 |
| 20260509043513 | 47 | 145 | 3.5 | 7.0 | 0.00 | 0.00 | 0.00 | 58 | 1004.2 |
| 20260509043014 | 48 | 143 | 4.3 | 7.8 | 0.00 | 0.00 | 0.00 | 58 | 1004.3 |
| 20260509043002 | 48 | 135 | 3.5 | 8.7 | 0.00 | 0.00 | 0.00 | 57 | 1003.6 |
| 20260509042547 | 48 | 139 | 4.3 | 8.7 | 0.00 | 0.00 | 0.00 | 58 | 1004.4 |
| 20260509042013 | 48 | 161 | 5.2 | 8.7 | 0.00 | 0.00 | 0.00 | 57 | 1004.5 |
| 20260509041536 | 47 | 130 | 6.1 | 8.7 | 0.00 | 0.00 | 0.00 | 57 | 1004.5 |
| 20260509041503 | 47 | 132 | 6.1 | 9.6 | 0.00 | 0.00 | 0.00 | 57 | 1003.4 |
| 20260509041024 | 47 | 147 | 6.1 | 8.7 | 0.00 | 0.00 | 0.00 | 57 | 1004.6 |
| 20260509040514 | 47 | 138 | 5.2 | 7.8 | 0.00 | 0.00 | 0.00 | 57 | 1004.5 |
| 20260509040014 | 47 | 137 | 5.2 | 9.6 | 0.00 | 0.00 | 0.00 | 58 | 1004.7 |
| 20260509040004 | 47 | 128 | 5.2 | 10.4 | 0.00 | 0.00 | 0.00 | 57 | 1003.5 |
| 20260509035525 | 47 | 159 | 6.1 | 9.6 | 0.00 | 0.00 | 0.00 | 57 | 1004.7 |
| 20260509035013 | 47 | 121 | 4.3 | 7.0 | 0.00 | 0.00 | 0.00 | 58 | 1004.8 |
| 20260509034524 | 47 | 142 | 5.2 | 7.0 | 0.00 | 0.00 | 0.00 | 58 | 1004.9 |
| 20260509034503 | 47 | 130 | 4.3 | 7.8 | 0.00 | 0.00 | 0.00 | 57 | 1003.8 |
| 20260509034013 | 47 | 135 | 5.2 | 7.0 | 0.00 | 0.00 | 0.00 | 57 | 1004.9 |
| 20260509033524 | 47 | 136 | 4.3 | 7.8 | 0.00 | 0.00 | 0.00 | 57 | 1005.0 |
| 20260509033036 | 47 | 142 | 4.3 | 7.8 | 0.00 | 0.00 | 0.00 | 56 | 1005.0 |
| 20260509033003 | 48 | 128 | 4.3 | 7.8 | 0.00 | 0.00 | 0.00 | 56 | 1004.0 |
| 20260509032013 | 47 | 173 | 3.5 | 7.8 | 0.00 | 0.00 | 0.00 | 57 | 1005.2 |
| 20260509031525 | 47 | 119 | 4.3 | 7.0 | 0.00 | 0.00 | 0.00 | 57 | 1005.2 |
| 20260509031509 | 47 | 129 | 3.5 | 7.8 | 0.00 | 0.00 | 0.00 | 57 | 1004.4 |
| 20260509031013 | 47 | 122 | 4.3 | 7.0 | 0.00 | 0.00 | 0.00 | 58 | 1005.3 |
| 20260509030525 | 47 | 138 | 5.2 | 7.8 | 0.00 | 0.00 | 0.00 | 58 | 1005.3 |
| 20260509030013 | 47 | 148 | 4.3 | 7.8 | 0.00 | 0.00 | 0.00 | 59 | 1005.4 |
| 20260509030003 | 47 | 134 | 3.5 | 8.7 | 0.00 | 0.00 | 0.00 | 59 | 1004.8 |
| 20260509025525 | 47 | 161 | 4.3 | 7.8 | 0.00 | 0.00 | 0.00 | 59 | 1005.5 |
| 20260509024502 | 47 | 119 | 4.3 | 8.7 | 0.00 | 0.00 | 0.00 | 58 | 1004.6 |
| 20260509024024 | 47 | 98 | 5.2 | 7.8 | 0.00 | 0.00 | 0.00 | 59 | 1005.5 |
| 20260509023524 | 47 | 123 | 5.2 | 7.8 | 0.00 | 0.00 | 0.00 | 59 | 1005.6 |
| 20260509023036 | 47 | 146 | 4.3 | 7.8 | 0.00 | 0.00 | 0.00 | 60 | 1005.7 |
| 20260509023003 | 47 | 148 | 4.3 | 8.7 | 0.00 | 0.00 | 0.00 | 59 | 1004.5 |
| 20260509022535 | 46 | 118 | 3.5 | 6.1 | 0.00 | 0.00 | 0.00 | 61 | 1005.8 |
| 20260509022013 | 46 | 137 | 3.5 | 5.2 | 0.00 | 0.00 | 0.00 | 62 | 1005.7 |
| 20260509021513 | 46 | 148 | 2.6 | 5.2 | 0.00 | 0.00 | 0.00 | 62 | 1005.8 |
| 20260509021505 | 46 | 150 | 1.7 | 6.1 | 0.00 | 0.00 | 0.00 | 62 | 1004.5 |
| 20260509021014 | 46 | 136 | 3.5 | 5.2 | 0.00 | 0.00 | 0.00 | 62 | 1005.8 |
| 20260509020547 | 46 | 126 | 3.5 | 5.2 | 0.00 | 0.00 | 0.00 | 62 | 1005.7 |
| 20260509020025 | 46 | 138 | 3.5 | 5.2 | 0.00 | 0.00 | 0.00 | 61 | 1005.8 |
| 20260509020003 | 46 | 124 | 3.5 | 6.1 | 0.00 | 0.00 | 0.00 | 61 | 1004.8 |
| 20260509015524 | 46 | 121 | 3.5 | 6.1 | 0.00 | 0.00 | 0.00 | 61 | 1005.8 |
| 20260509015036 | 46 | 107 | 3.5 | 6.1 | 0.00 | 0.00 | 0.00 | 60 | 1005.7 |
| 20260509014513 | 46 | 124 | 3.5 | 6.1 | 0.00 | 0.00 | 0.00 | 60 | 1005.7 |
| 20260509014507 | 46 | 125 | 3.5 | 6.1 | 0.00 | 0.00 | 0.00 | 59 | 1005.0 |
| 20260509014015 | 46 | 117 | 3.5 | 5.2 | 0.00 | 0.00 | 0.00 | 60 | 1005.7 |
| 20260509013513 | 46 | 120 | 3.5 | 5.2 | 0.00 | 0.00 | 0.00 | 59 | 1005.8 |
| 20260509013013 | 46 | 117 | 3.5 | 5.2 | 0.00 | 0.00 | 0.00 | 59 | 1005.7 |
| 20260509013005 | 46 | 117 | 3.5 | 6.1 | 0.00 | 0.00 | 0.00 | 59 | 1004.9 |
| 20260509012513 | 47 | 107 | 3.5 | 6.1 | 0.00 | 0.00 | 0.00 | 59 | 1005.7 |
| 20260509012036 | 47 | 111 | 2.6 | 4.3 | 0.00 | 0.00 | 0.00 | 59 | 1005.6 |
| 20260509011525 | 47 | 119 | 3.5 | 4.3 | 0.00 | 0.00 | 0.00 | 59 | 1005.6 |
| 20260509011505 | 47 | 120 | 2.6 | 5.2 | 0.00 | 0.00 | 0.00 | 59 | 1004.3 |
| 20260509011024 | 47 | 108 | 3.5 | 4.3 | 0.00 | 0.00 | 0.00 | 60 | 1005.6 |
| 20260509010513 | 47 | 108 | 3.5 | 4.3 | 0.00 | 0.00 | 0.00 | 60 | 1005.6 |
| 20260509010025 | 47 | 108 | 3.5 | 4.3 | 0.00 | 0.00 | 0.00 | 61 | 1005.5 |
| 20260509010003 | 47 | 108 | 2.6 | 5.2 | 0.00 | 0.00 | 0.00 | 61 | 1004.3 |
| 20260509005514 | 46 | 108 | 2.6 | 3.5 | 0.00 | 0.00 | 0.00 | 62 | 1005.5 |
| 20260509005046 | 47 | 108 | 1.7 | 4.3 | 0.00 | 0.00 | 0.00 | 63 | 1005.5 |
| 20260509004524 | 47 | 108 | 2.6 | 4.3 | 0.00 | 0.00 | 0.00 | 63 | 1005.4 |
| 20260509004503 | 47 | 108 | 1.7 | 5.2 | 0.00 | 0.00 | 0.00 | 62 | 1004.4 |
| 20260509004025 | 46 | 108 | 2.6 | 4.3 | 0.00 | 0.00 | 0.00 | 64 | 1005.5 |
| 20260509003547 | 46 | 95 | 1.7 | 5.2 | 0.00 | 0.00 | 0.00 | 70 | 1005.5 |
| 20260509003047 | 46 | 95 | 2.6 | 5.2 | 0.00 | 0.00 | 0.00 | 68 | 1005.5 |
| 20260509003003 | 46 | 95 | 2.6 | 5.2 | 0.00 | 0.00 | 0.00 | 67 | 1004.4 |
| 20260509002536 | 45 | 110 | 2.6 | 4.3 | 0.00 | 0.00 | 0.00 | 70 | 1005.4 |
| 20260509002014 | 44 | 106 | 2.6 | 4.3 | 0.00 | 0.00 | 0.00 | 79 | 1005.4 |
| 20260509001514 | 42 | 117 | 1.7 | 3.5 | 0.00 | 0.00 | 0.00 | 87 | 1005.4 |
| 20260509001504 | 42 | 123 | 0.9 | 3.5 | 0.00 | 0.00 | 0.00 | 87 | 1004.7 |
| 20260509001013 | 42 | 92 | 1.7 | 5.2 | 0.00 | 0.00 | 0.00 | 89 | 1005.4 |
| 20260509000514 | 41 | 92 | 2.6 | 7.0 | 0.00 | 0.00 | 0.00 | 89 | 1005.4 |
| 20260509000047 | 41 | 92 | 5.2 | 7.0 | 0.00 | 0.00 | 0.00 | 89 | 1005.5 |
| 20260509000004 | 41 | 92 | 3.5 | 7.0 | 0.00 | 0.00 | 0.00 | 88 | 1004.8 |
| 20260508235525 | 40 | 84 | 6.1 | 7.0 | 0.00 | 0.00 | 0.00 | 89 | 1005.5 |
| 20260508235013 | 40 | 67 | 4.3 | 7.0 | 0.00 | 0.00 | 0.00 | 90 | 1005.6 |
| 20260508234524 | 40 | 76 | 4.3 | 7.8 | 0.00 | 0.00 | 0.00 | 90 | 1005.6 |
| 20260508234504 | 40 | 76 | 3.5 | 7.8 | 0.00 | 0.00 | 0.00 | 89 | 1004.4 |
| 20260508234047 | 40 | 80 | 5.2 | 7.8 | 0.00 | 0.00 | 0.00 | 90 | 1005.6 |
| 20260508233525 | 40 | 76 | 4.3 | 7.0 | 0.00 | 0.00 | 0.00 | 89 | 1005.8 |
| 20260508233013 | 40 | 78 | 4.3 | 7.0 | 0.00 | 0.00 | 0.00 | 89 | 1005.8 |
| 20260508233005 | 40 | 78 | 4.3 | 7.0 | 0.00 | 0.00 | 0.00 | 89 | 1004.6 |
| 20260508232524 | 40 | 76 | 5.2 | 6.1 | 0.00 | 0.00 | 0.00 | 89 | 1005.7 |
| 20260508232013 | 40 | 85 | 4.3 | 7.0 | 0.00 | 0.00 | 0.00 | 89 | 1005.8 |
| 20260508231525 | 40 | 79 | 6.1 | 7.0 | 0.00 | 0.00 | 0.00 | 88 | 1005.8 |
| 20260508231503 | 40 | 79 | 5.2 | 7.8 | 0.00 | 0.00 | 0.00 | 88 | 1004.7 |
| 20260508231014 | 40 | 75 | 5.2 | 8.7 | 0.00 | 0.00 | 0.00 | 88 | 1005.8 |
| 20260508230514 | 40 | 80 | 6.1 | 9.6 | 0.00 | 0.00 | 0.00 | 88 | 1005.8 |
| 20260508230014 | 40 | 81 | 7.8 | 9.6 | 0.00 | 0.00 | 0.00 | 87 | 1005.8 |
| 20260508230003 | 40 | 72 | 7.0 | 9.6 | 0.00 | 0.00 | 0.00 | 86 | 1004.9 |
| 20260508225515 | 40 | 72 | 7.0 | 8.7 | 0.00 | 0.00 | 0.00 | 87 | 1005.9 |
| 20260508225014 | 40 | 74 | 7.0 | 8.7 | 0.00 | 0.00 | 0.00 | 87 | 1005.9 |
| 20260508224503 | 40 | 76 | 6.1 | 8.7 | 0.00 | 0.00 | 0.00 | 86 | 1005.1 |
| 20260508224014 | 40 | 76 | 7.0 | 8.7 | 0.00 | 0.00 | 0.00 | 86 | 1006.0 |
| 20260508223514 | 40 | 79 | 6.1 | 8.7 | 0.00 | 0.00 | 0.00 | 86 | 1006.0 |
| 20260508223047 | 40 | 69 | 7.0 | 10.4 | 0.00 | 0.00 | 0.00 | 85 | 1006.0 |
| 20260508223007 | 40 | 63 | 7.0 | 10.4 | 0.00 | 0.00 | 0.00 | 85 | 1005.5 |
| 20260508222514 | 40 | 79 | 7.8 | 12.2 | 0.00 | 0.00 | 0.00 | 85 | 1006.1 |
| 20260508222024 | 40 | 65 | 9.6 | 12.2 | 0.00 | 0.00 | 0.00 | 85 | 1006.0 |
| 20260508221504 | 40 | 70 | 8.7 | 11.3 | 0.00 | 0.00 | 0.00 | 84 | 1005.3 |
| 20260508221025 | 40 | 59 | 7.0 | 9.6 | 0.00 | 0.00 | 0.00 | 84 | 1006.1 |
| 20260508220536 | 41 | 68 | 7.8 | 9.6 | 0.00 | 0.00 | 0.00 | 85 | 1006.0 |
| 20260508220025 | 41 | 63 | 7.8 | 9.6 | 0.00 | 0.00 | 0.00 | 85 | 1006.1 |
| 20260508220020 | 41 | 68 | 7.8 | 10.4 | 0.00 | 0.00 | 0.00 | 85 | 1005.0 |
| 20260508215536 | 40 | 67 | 8.7 | 10.4 | 0.00 | 0.00 | 0.00 | 85 | 1006.2 |
| 20260508215025 | 40 | 64 | 8.7 | 9.6 | 0.00 | 0.00 | 0.00 | 85 | 1006.2 |
| 20260508214514 | 40 | 57 | 7.8 | 9.6 | 0.00 | 0.00 | 0.00 | 84 | 1006.1 |
| 20260508214504 | 40 | 62 | 7.0 | 10.4 | 0.00 | 0.00 | 0.00 | 83 | 1005.2 |
| 20260508214025 | 41 | 61 | 7.8 | 9.6 | 0.00 | 0.00 | 0.00 | 83 | 1006.2 |
| 20260508213525 | 41 | 61 | 8.7 | 9.6 | 0.00 | 0.00 | 0.00 | 83 | 1006.1 |
| 20260508213013 | 41 | 67 | 7.8 | 10.4 | 0.00 | 0.00 | 0.00 | 82 | 1006.2 |
| 20260508213009 | 41 | 69 | 7.0 | 10.4 | 0.00 | 0.00 | 0.00 | 82 | 1005.1 |
| 20260508212514 | 41 | 69 | 8.7 | 10.4 | 0.00 | 0.00 | 0.00 | 81 | 1006.2 |
| 20260508211514 | 41 | 61 | 6.1 | 7.8 | 0.00 | 0.00 | 0.00 | 81 | 1006.2 |
| 20260508211505 | 41 | 65 | 5.2 | 7.8 | 0.00 | 0.00 | 0.00 | 80 | 1005.2 |
| 20260508210014 | 42 | 59 | 6.1 | 8.7 | 0.00 | 0.00 | 0.00 | 79 | 1006.3 |
| 20260508210008 | 42 | 67 | 5.2 | 8.7 | 0.00 | 0.00 | 0.00 | 78 | 1005.4 |
| 20260508205514 | 42 | 40 | 7.0 | 8.7 | 0.00 | 0.00 | 0.00 | 79 | 1006.3 |
| 20260508205047 | 42 | 38 | 5.2 | 10.4 | 0.00 | 0.00 | 0.00 | 80 | 1006.5 |
| 20260508204525 | 41 | 49 | 8.7 | 10.4 | 0.00 | 0.00 | 0.00 | 80 | 1006.4 |
| 20260508204508 | 41 | 57 | 8.7 | 10.4 | 0.00 | 0.00 | 0.00 | 79 | 1005.5 |
| 20260508204036 | 41 | 60 | 8.7 | 10.4 | 0.00 | 0.00 | 0.00 | 79 | 1006.4 |
| 20260508203514 | 41 | 54 | 5.2 | 13.0 | 0.00 | 0.00 | 0.00 | 79 | 1006.3 |
| 20260508203014 | 41 | 65 | 11.3 | 13.0 | 0.00 | 0.00 | 0.00 | 79 | 1006.2 |
| 20260508203004 | 41 | 64 | 10.4 | 13.0 | 0.00 | 0.00 | 0.00 | 78 | 1005.7 |
| 20260508202514 | 41 | 64 | 9.6 | 12.2 | 0.00 | 0.00 | 0.00 | 80 | 1006.2 |
| 20260508202014 | 41 | 64 | 9.6 | 12.2 | 0.00 | 0.00 | 0.00 | 81 | 1006.2 |
| 20260508201515 | 41 | 49 | 7.0 | 13.0 | 0.00 | 0.00 | 0.00 | 83 | 1006.2 |
| 20260508201509 | 41 | 61 | 6.1 | 13.0 | 0.00 | 0.00 | 0.00 | 82 | 1005.6 |
| 20260508201015 | 41 | 61 | 9.6 | 13.0 | 0.00 | 0.00 | 0.00 | 82 | 1006.3 |
| 20260508200514 | 41 | 66 | 10.4 | 12.2 | 0.00 | 0.00 | 0.00 | 81 | 1006.3 |
| 20260508200040 | 41 | 55 | 9.6 | 12.2 | 0.00 | 0.00 | 0.00 | 80 | 1006.3 |
| 20260508200003 | 41 | 62 | 9.6 | 13.0 | 0.00 | 0.00 | 0.00 | 80 | 1005.2 |
| 20260508195514 | 41 | 56 | 8.7 | 13.9 | 0.00 | 0.00 | 0.00 | 80 | 1006.6 |
| 20260508195036 | 41 | 68 | 12.2 | 13.9 | 0.00 | 0.00 | 0.00 | 78 | 1006.4 |
| 20260508194514 | 41 | 69 | 10.4 | 13.0 | 0.00 | 0.00 | 0.00 | 79 | 1006.5 |
| 20260508194503 | 41 | 65 | 9.6 | 13.9 | 0.00 | 0.00 | 0.00 | 78 | 1005.4 |
| 20260508194047 | 41 | 63 | 10.4 | 13.9 | 0.00 | 0.00 | 0.00 | 78 | 1006.7 |
| 20260508193537 | 41 | 65 | 12.2 | 13.0 | 0.00 | 0.00 | 0.00 | 78 | 1006.6 |
| 20260508193014 | 41 | 64 | 11.3 | 13.0 | 0.00 | 0.00 | 0.00 | 79 | 1006.8 |
| 20260508193004 | 41 | 65 | 10.4 | 13.0 | 0.00 | 0.00 | 0.00 | 78 | 1005.7 |
| 20260508192514 | 41 | 63 | 10.4 | 13.0 | 0.00 | 0.00 | 0.00 | 79 | 1006.8 |
| 20260508192025 | 41 | 67 | 8.7 | 10.4 | 0.00 | 0.00 | 0.00 | 79 | 1006.8 |
| 20260508191515 | 41 | 72 | 7.8 | 12.2 | 0.00 | 0.00 | 0.00 | 80 | 1006.0 |
| 20260508190536 | 41 | 65 | 8.7 | 11.3 | 0.00 | 0.00 | 0.00 | 79 | 1007.1 |
| 20260508190014 | 41 | 56 | 9.6 | 12.2 | 0.00 | 0.00 | 0.00 | 79 | 1007.0 |
| 20260508190003 | 41 | 51 | 9.6 | 13.0 | 0.00 | 0.00 | 0.00 | 79 | 1006.1 |
| 20260508185014 | 41 | 57 | 9.6 | 12.2 | 0.00 | 0.00 | 0.00 | 78 | 1007.2 |
| 20260508184514 | 41 | 68 | 10.4 | 12.2 | 0.00 | 0.00 | 0.00 | 79 | 1007.1 |
| 20260508184505 | 41 | 42 | 10.4 | 13.0 | 0.00 | 0.00 | 0.00 | 79 | 1006.3 |
| 20260508184025 | 41 | 55 | 10.4 | 12.2 | 0.00 | 0.00 | 0.00 | 80 | 1007.3 |
| 20260508183514 | 40 | 69 | 10.4 | 12.2 | 0.00 | 0.00 | 0.00 | 81 | 1007.3 |
| 20260508183014 | 41 | 69 | 9.6 | 11.3 | 0.00 | 0.00 | 0.00 | 80 | 1007.3 |
| 20260508183007 | 41 | 59 | 9.6 | 13.0 | 0.00 | 0.00 | 0.00 | 80 | 1006.7 |
| 20260508182525 | 41 | 53 | 9.6 | 13.0 | 0.00 | 0.00 | 0.00 | 80 | 1007.5 |
| 20260508182025 | 41 | 60 | 10.4 | 13.0 | 0.00 | 0.00 | 0.00 | 80 | 1007.5 |
| 20260508181504 | 41 | 64 | 9.6 | 13.0 | 0.00 | 0.00 | 0.00 | 79 | 1007.2 |
| 20260508180014 | 40 | 73 | 13.0 | 14.8 | 0.00 | 0.00 | 0.00 | 79 | 1007.7 |
| 20260508180010 | 40 | 71 | 12.2 | 14.8 | 0.00 | 0.00 | 0.00 | 79 | 1007.3 |
| 20260508175525 | 40 | 75 | 12.2 | 13.9 | 0.00 | 0.00 | 0.00 | 79 | 1007.8 |
| 20260508175014 | 40 | 73 | 12.2 | 13.0 | 0.00 | 0.00 | 0.00 | 79 | 1007.8 |
| 20260508174537 | 40 | 63 | 10.4 | 13.9 | 0.00 | 0.00 | 0.00 | 80 | 1008.0 |
| 20260508174502 | 40 | 67 | 10.4 | 13.9 | 0.00 | 0.00 | 0.00 | 80 | 1007.5 |
| 20260508173014 | 40 | 79 | 10.4 | 13.0 | 0.00 | 0.00 | 0.00 | 80 | 1008.1 |
| 20260508173003 | 40 | 80 | 10.4 | 13.0 | 0.00 | 0.00 | 0.00 | 79 | 1006.8 |
| 20260508172014 | 41 | 57 | 9.6 | 10.4 | 0.00 | 0.00 | 0.00 | 80 | 1008.2 |
| 20260508171515 | 41 | 66 | 7.8 | 10.4 | 0.00 | 0.00 | 0.00 | 79 | 1008.3 |
| 20260508171504 | 41 | 65 | 7.8 | 10.4 | 0.00 | 0.00 | 0.00 | 79 | 1007.1 |
| 20260508171014 | 41 | 63 | 8.7 | 9.6 | 0.00 | 0.00 | 0.00 | 80 | 1008.2 |
| 20260508170514 | 40 | 73 | 9.6 | 10.4 | 0.00 | 0.00 | 0.00 | 81 | 1008.4 |
| 20260508170014 | 40 | 69 | 7.0 | 9.6 | 0.00 | 0.00 | 0.00 | 82 | 1008.4 |
| 20260508170004 | 40 | 78 | 7.0 | 9.6 | 0.00 | 0.00 | 0.00 | 80 | 1007.2 |
| 20260508165514 | 40 | 82 | 7.8 | 8.7 | 0.00 | 0.00 | 0.00 | 80 | 1008.4 |
| 20260508165014 | 40 | 63 | 6.1 | 9.6 | 0.00 | 0.00 | 0.00 | 81 | 1008.4 |
| 20260508164525 | 40 | 73 | 7.8 | 9.6 | 0.00 | 0.00 | 0.00 | 83 | 1008.4 |
| 20260508164510 | 39 | 74 | 7.8 | 9.6 | 0.00 | 0.00 | 0.00 | 82 | 1007.3 |
| 20260508164025 | 39 | 76 | 5.2 | 7.0 | 0.00 | 0.00 | 0.00 | 83 | 1008.6 |
| 20260508163548 | 39 | 74 | 5.2 | 7.8 | 0.00 | 0.00 | 0.00 | 83 | 1008.4 |
| 20260508163037 | 39 | 63 | 7.8 | 7.8 | 0.00 | 0.00 | 0.00 | 82 | 1008.4 |
| 20260508163003 | 39 | 63 | 7.0 | 8.7 | 0.00 | 0.00 | 0.00 | 81 | 1007.2 |
| 20260508162514 | 39 | 69 | 5.2 | 7.0 | 0.00 | 0.00 | 0.00 | 82 | 1008.4 |
| 20260508161537 | 40 | 68 | 6.1 | 8.7 | 0.00 | 0.00 | 0.00 | 81 | 1008.5 |
| 20260508161503 | 40 | 65 | 5.2 | 8.7 | 0.00 | 0.00 | 0.00 | 80 | 1007.2 |
| 20260508161014 | 40 | 88 | 7.0 | 8.7 | 0.00 | 0.00 | 0.00 | 80 | 1008.5 |
| 20260508160514 | 40 | 61 | 6.1 | 8.7 | 0.00 | 0.00 | 0.00 | 80 | 1008.6 |
| 20260508160014 | 40 | 62 | 7.0 | 8.7 | 0.00 | 0.00 | 0.00 | 78 | 1008.5 |
| 20260508160004 | 40 | 74 | 7.0 | 8.7 | 0.00 | 0.00 | 0.00 | 78 | 1007.4 |
| 20260508155514 | 40 | 91 | 5.2 | 7.0 | 0.00 | 0.00 | 0.00 | 79 | 1008.6 |
| 20260508155014 | 40 | 72 | 5.2 | 6.1 | 0.00 | 0.00 | 0.00 | 79 | 1008.8 |
| 20260508154525 | 40 | 37 | 3.5 | 8.7 | 0.00 | 0.00 | 0.00 | 79 | 1008.8 |
| 20260508154507 | 40 | 37 | 3.5 | 9.6 | 0.00 | 0.00 | 0.00 | 79 | 1007.6 |
| 20260508154037 | 40 | 30 | 7.0 | 8.7 | 0.00 | 0.00 | 0.00 | 77 | 1008.7 |
| 20260508153515 | 40 | 63 | 5.2 | 6.1 | 0.00 | 0.00 | 0.00 | 78 | 1008.8 |
| 20260508153025 | 40 | 36 | 3.5 | 6.1 | 0.00 | 0.00 | 0.00 | 79 | 1009.0 |
| 20260508153016 | 40 | 36 | 2.6 | 5.2 | 0.00 | 0.00 | 0.00 | 78 | 1007.8 |
| 20260508152025 | 40 | 32 | 2.6 | 5.2 | 0.00 | 0.00 | 0.00 | 79 | 1009.1 |
| 20260508151515 | 40 | 22 | 3.5 | 5.2 | 0.00 | 0.00 | 0.00 | 78 | 1009.0 |
| 20260508151503 | 40 | 22 | 3.5 | 7.0 | 0.00 | 0.00 | 0.00 | 77 | 1008.0 |
| 20260508151014 | 40 | 28 | 3.5 | 6.1 | 0.00 | 0.00 | 0.00 | 79 | 1009.0 |
| 20260508150525 | 40 | 31 | 4.3 | 6.1 | 0.00 | 0.00 | 0.00 | 77 | 1009.0 |
| 20260508150004 | 40 | 33 | 2.6 | 5.2 | 0.00 | 0.00 | 0.00 | 78 | 1008.1 |
| 20260508145547 | 40 | 30 | 3.5 | 5.2 | 0.00 | 0.00 | 0.00 | 78 | 1009.2 |
| 20260508145025 | 40 | 40 | 3.5 | 5.2 | 0.00 | 0.00 | 0.00 | 78 | 1009.0 |
| 20260508144525 | 40 | 40 | 2.6 | 4.3 | 0.00 | 0.00 | 0.00 | 78 | 1009.1 |
| 20260508144506 | 40 | 40 | 2.6 | 4.3 | 0.00 | 0.00 | 0.00 | 77 | 1008.2 |
| 20260508144026 | 40 | 40 | 2.6 | 5.2 | 0.00 | 0.00 | 0.00 | 78 | 1009.2 |
| 20260508143525 | 40 | 40 | 2.6 | 6.1 | 0.00 | 0.00 | 0.00 | 79 | 1009.1 |
| 20260508143014 | 40 | 40 | 4.3 | 6.1 | 0.00 | 0.00 | 0.00 | 78 | 1009.1 |
| 20260508143009 | 40 | 40 | 4.3 | 7.0 | 0.00 | 0.00 | 0.00 | 77 | 1008.2 |
| 20260508142515 | 40 | 34 | 4.3 | 6.1 | 0.00 | 0.00 | 0.00 | 76 | 1009.1 |
| 20260508142014 | 40 | 40 | 3.5 | 6.1 | 0.00 | 0.00 | 0.00 | 76 | 1009.2 |
| 20260508141526 | 40 | 31 | 4.3 | 6.1 | 0.00 | 0.00 | 0.00 | 76 | 1009.2 |
| 20260508141512 | 40 | 31 | 3.5 | 7.0 | 0.00 | 0.00 | 0.00 | 76 | 1008.4 |
| 20260508141036 | 40 | 32 | 5.2 | 6.1 | 0.00 | 0.00 | 0.00 | 75 | 1009.3 |
| 20260508140537 | 41 | 33 | 3.5 | 5.2 | 0.00 | 0.00 | 0.00 | 73 | 1009.3 |
| 20260508140014 | 41 | 33 | 4.3 | 5.2 | 0.00 | 0.00 | 0.00 | 71 | 1009.3 |
| 20260508140006 | 41 | 33 | 3.5 | 5.2 | 0.00 | 0.00 | 0.00 | 71 | 1008.5 |
| 20260508135526 | 42 | 27 | 4.3 | 5.2 | 0.00 | 0.00 | 0.00 | 71 | 1009.3 |
| 20260508135015 | 43 | 27 | 2.6 | 6.1 | 0.00 | 0.00 | 0.00 | 69 | 1009.4 |
| 20260508134506 | 44 | 23 | 2.6 | 8.7 | 0.00 | 0.00 | 0.00 | 65 | 1008.7 |
| 20260508133515 | 44 | 261 | 7.0 | 11.3 | 0.00 | 0.00 | 0.00 | 64 | 1009.5 |
| 20260508133026 | 44 | 268 | 6.1 | 9.6 | 0.00 | 0.00 | 0.00 | 64 | 1009.5 |
| 20260508133008 | 44 | 260 | 6.1 | 10.4 | 0.00 | 0.00 | 0.00 | 64 | 1008.8 |
| 20260508132515 | 45 | 226 | 6.1 | 9.6 | 0.00 | 0.00 | 0.00 | 64 | 1009.6 |
| 20260508132015 | 45 | 250 | 5.2 | 14.8 | 0.00 | 0.00 | 0.00 | 65 | 1009.7 |
| 20260508131515 | 44 | 261 | 7.0 | 14.8 | 0.00 | 0.00 | 0.00 | 65 | 1009.7 |
| 20260508131513 | 44 | 246 | 7.0 | 15.6 | 0.00 | 0.00 | 0.00 | 65 | 1009.1 |
| 20260508131015 | 44 | 271 | 6.1 | 9.6 | 0.00 | 0.00 | 0.00 | 66 | 1009.7 |
| 20260508130514 | 43 | 200 | 5.2 | 8.7 | 0.00 | 0.00 | 0.00 | 67 | 1009.7 |
| 20260508130016 | 43 | 240 | 5.2 | 7.8 | 0.00 | 0.00 | 0.00 | 67 | 1009.0 |
| 20260508125515 | 42 | 214 | 4.3 | 7.0 | 0.00 | 0.00 | 0.00 | 68 | 1009.7 |
| 20260508125037 | 41 | 207 | 4.3 | 6.1 | 0.00 | 0.00 | 0.00 | 68 | 1009.8 |
| 20260508124521 | 41 | 229 | 2.6 | 7.0 | 0.00 | 0.00 | 0.00 | 68 | 1009.5 |
| 20260508124515 | 41 | 229 | 2.6 | 6.1 | 0.00 | 0.00 | 0.00 | 68 | 1009.9 |
| 20260508124015 | 41 | 225 | 3.5 | 6.1 | 0.00 | 0.00 | 0.00 | 68 | 1010.0 |
| 20260508123514 | 40 | 207 | 1.7 | 5.2 | 0.00 | 0.00 | 0.00 | 69 | 1010.0 |
| 20260508123015 | 40 | 209 | 2.6 | 5.2 | 0.00 | 0.00 | 0.00 | 68 | 1009.9 |
| 20260508123004 | 40 | 209 | 2.6 | 6.1 | 0.00 | 0.00 | 0.00 | 68 | 1009.3 |
| 20260508122526 | 40 | 250 | 3.5 | 5.2 | 0.00 | 0.00 | 0.00 | 69 | 1010.0 |
| 20260508122014 | 39 | 224 | 1.7 | 5.2 | 0.00 | 0.00 | 0.00 | 69 | 1009.9 |
| 20260508121509 | 39 | 229 | 2.6 | 7.0 | 0.00 | 0.00 | 0.00 | 69 | 1008.3 |
| 20260508121015 | 39 | 240 | 2.6 | 7.0 | 0.00 | 0.00 | 0.00 | 70 | 1009.9 |
| 20260508120548 | 39 | 240 | 3.5 | 7.0 | 0.00 | 0.00 | 0.00 | 70 | 1010.0 |
| 20260508120015 | 39 | 239 | 2.6 | 4.3 | 0.00 | 0.00 | 0.00 | 70 | 1010.0 |
| 20260508115014 | 38 | 234 | 2.6 | 5.2 | 0.00 | 0.00 | 0.00 | 70 | 1009.9 |
| 20260508114518 | 38 | 261 | 2.6 | 6.1 | 0.00 | 0.00 | 0.00 | 69 | 1008.6 |
| 20260508114515 | 38 | 245 | 2.6 | 5.2 | 0.00 | 0.00 | 0.00 | 70 | 1009.9 |
| 20260508114015 | 38 | 236 | 1.7 | 4.3 | 0.00 | 0.00 | 0.00 | 70 | 1009.8 |
| 20260508113024 | 37 | 205 | 2.6 | 5.2 | 0.00 | 0.00 | 0.00 | 70 | 1008.5 |
| 20260508113015 | 37 | 198 | 3.5 | 5.2 | 0.00 | 0.00 | 0.00 | 70 | 1009.7 |
| 20260508112515 | 37 | 215 | 2.6 | 5.2 | 0.00 | 0.00 | 0.00 | 70 | 1009.6 |
| 20260508112026 | 37 | 236 | 1.7 | 3.5 | 0.00 | 0.00 | 0.00 | 71 | 1009.6 |
| 20260508111526 | 37 | 225 | 1.7 | 3.5 | 0.00 | 0.00 | 0.00 | 71 | 1009.6 |
| 20260508111507 | 37 | 228 | 1.7 | 4.3 | 0.00 | 0.00 | 0.00 | 70 | 1008.5 |
| 20260508111026 | 36 | 204 | 2.6 | 4.3 | 0.00 | 0.00 | 0.00 | 71 | 1009.6 |
| 20260508110515 | 36 | 222 | 3.5 | 5.2 | 0.00 | 0.00 | 0.00 | 71 | 1009.5 |
| 20260508110037 | 36 | 196 | 3.5 | 5.2 | 0.00 | 0.00 | 0.00 | 71 | 1009.6 |
| 20260508110008 | 36 | 196 | 3.5 | 5.2 | 0.00 | 0.00 | 0.00 | 71 | 1008.9 |
| 20260508105548 | 36 | 198 | 3.5 | 4.3 | 0.00 | 0.00 | 0.00 | 71 | 1009.6 |
| 20260508105015 | 35 | 193 | 2.6 | 6.1 | 0.00 | 0.00 | 0.00 | 72 | 1009.5 |
| 20260508104548 | 35 | 198 | 3.5 | 6.1 | 0.00 | 0.00 | 0.00 | 72 | 1009.5 |
| 20260508104504 | 35 | 194 | 3.5 | 6.1 | 0.00 | 0.00 | 0.00 | 71 | 1008.4 |
| 20260508104014 | 35 | 219 | 3.5 | 6.1 | 0.00 | 0.00 | 0.00 | 72 | 1009.4 |
| 20260508103515 | 35 | 192 | 4.3 | 6.1 | 0.00 | 0.00 | 0.00 | 71 | 1009.4 |
| 20260508103015 | 35 | 195 | 4.3 | 6.1 | 0.00 | 0.00 | 0.00 | 71 | 1009.4 |
| 20260508103003 | 35 | 195 | 3.5 | 6.1 | 0.00 | 0.00 | 0.00 | 71 | 1008.0 |
| 20260508102537 | 35 | 204 | 3.5 | 5.2 | 0.00 | 0.00 | 0.00 | 71 | 1009.4 |